Location: Chuathbaluk
(61.5726°N, 159.2454°W)
Time: 11:03:37
(UTC+00:00)

Explorer 7 - Pass Details

Date: 26 November 2020
Orbit: 484 x 678 km, 50.3° (Epoch: 17 January)

Event Time Altitude Azimuth Distance (km) Brightness Sun altitude
Exits shadow 17:19:30 - 241° (WSW) 2,134 9.5 -12.2°
Reaches altitude 10° 17:20:40 10° 230° (SW) 1,819 9.2 -12.1°
Maximum altitude 17:23:02 15° 195° (SSW) 1,497 9.1 -11.8°
Drops below altitude 10° 17:25:19 10° 160° (SSE) 1,756 10.0 -11.6°
Sets 17:28:13 0° 136° (SE) 2,608 11.7 -11.2°
